DG3OBU-6 Weather Reports


time (UTC)temp
C
wind
direction
speed
KPH
gust
KPH
rain 1hr
cm
rain 24hr
cm
rain mn
cm
humidity
%
barometer
mb
20260507093502 8 3 0.0 0.0 0.00 0.38 0.00 90 1014.0
20260507093002 8 351 0.0 0.0 0.00 0.38 0.00 90 1013.9
20260507092502 8 12 0.0 0.0 0.00 0.38 0.00 90 1013.9
20260507092002 8 50 0.0 0.0 0.00 0.38 0.00 90 1013.9
20260507091502 8 25 0.0 0.0 0.00 0.38 0.00 90 1013.7
20260507091002 8 21 0.0 0.0 0.00 0.38 0.00 90 1013.6
20260507090502 8 352 0.0 0.0 0.00 0.38 0.00 90 1013.5
20260507090002 8 4 0.0 0.0 0.00 0.38 0.00 90 1013.5
20260507085502 8 310 9.7 0.0 0.00 0.38 0.00 90 1013.5
20260507085002 8 72 0.0 0.0 0.00 0.38 0.00 90 1013.4
20260507084503 8 50 0.0 0.0 0.00 0.38 0.00 90 1013.4
20260507084003 8 49 0.0 0.0 0.00 0.38 0.00 90 1013.4
20260507083502 8 46 0.0 0.0 0.00 0.38 0.00 90 1013.3
20260507083003 8 7 0.0 0.0 0.00 0.38 0.00 90 1013.3
20260507082503 8 4 0.0 0.0 0.00 0.38 0.00 90 1013.3
20260507082002 8 33 4.8 0.0 0.00 0.38 0.00 90 1013.2
20260507081503 7 344 0.0 0.0 0.00 0.38 0.00 90 1013.2
20260507081003 7 85 0.0 0.0 0.00 0.38 0.00 90 1013.1
20260507080502 7 22 3.2 0.0 0.00 0.38 0.00 90 1013.1
20260507080003 7 9 0.0 0.0 0.00 0.38 0.00 90 1013.0
20260507075502 7 38 0.0 0.0 0.00 0.38 0.00 90 1013.0
20260507075002 7 335 0.0 0.0 0.00 0.38 0.00 90 1012.9
20260507074502 7 6 0.0 0.0 0.00 0.38 0.00 90 1012.9
20260507074002 7 58 0.0 0.0 0.00 0.38 0.00 90 1012.8
20260507073502 7 10 0.0 0.0 0.00 0.38 0.00 90 1012.7
20260507073002 7 5 0.0 0.0 0.00 0.38 0.00 90 1012.7
20260507072502 7 8 0.0 0.0 0.00 0.38 0.00 90 1012.7
20260507072002 7 11 0.0 0.0 0.00 0.38 0.00 90 1012.6
20260507071502 7 78 0.0 0.0 0.00 0.38 0.00 90 1012.5
20260507071002 7 6 9.7 0.0 0.00 0.38 0.00 90 1012.5
20260507070503 7 12 0.0 0.0 0.00 0.38 0.00 90 1012.5
20260507070003 7 358 0.0 0.0 0.00 0.38 0.00 90 1012.5
20260507065503 7 2 0.0 0.0 0.00 0.38 0.00 90 1012.4
20260507065002 7 55 9.7 0.0 0.00 0.38 0.00 90 1012.3
20260507064502 7 3 4.8 0.0 0.00 0.38 0.00 90 1012.3
20260507064002 7 351 0.0 0.0 0.00 0.38 0.00 90 1012.2
20260507063502 7 354 0.0 0.0 0.00 0.38 0.00 90 1012.2
20260507063002 7 341 3.2 0.0 0.00 0.38 0.00 90 1012.1
20260507062502 7 8 0.0 0.0 0.00 0.38 0.00 90 1012.0
20260507062002 7 346 0.0 0.0 0.00 0.38 0.00 90 1012.0
20260507061503 7 62 0.0 0.0 0.00 0.38 0.00 90 1011.9
20260507061003 7 347 0.0 0.0 0.00 0.38 0.00 90 1011.8
20260507060503 8 3 8.0 0.0 0.00 0.38 0.00 90 1011.8
20260507060003 8 20 0.0 0.0 0.00 0.38 0.00 90 1011.6
20260507055503 8 12 0.0 0.0 0.00 0.38 0.00 90 1011.5
20260507055003 8 61 0.0 0.0 0.00 0.38 0.00 90 1011.5
20260507054503 8 0 8.0 0.0 0.00 0.38 0.00 90 1011.4
20260506202002 8 13 0.0 0.0 0.15 4.42 0.00 89 1008.2
20260506201502 8 13 0.0 0.0 0.20 4.42 0.00 89 1008.2
20260506201002 8 8 0.0 0.0 0.23 4.39 0.00 89 1008.1
20260506200502 8 345 0.0 0.0 0.28 4.39 0.00 89 1008.1
20260506200003 8 354 3.2 0.0 0.33 4.37 0.00 89 1008.1
20260506195502 8 62 0.0 0.0 0.18 4.34 0.00 89 1008.1
20260506195002 8 340 0.0 0.0 0.15 4.32 0.00 89 1008.0
20260506194502 8 6 0.0 0.0 0.15 4.29 0.00 89 1008.1
20260506194002 8 358 0.0 0.0 0.15 4.29 0.00 89 1008.0
20260506193502 8 12 0.0 0.0 0.18 4.27 0.00 89 1008.0
20260506192502 8 11 0.0 0.0 0.20 4.24 0.00 89 1007.9
20260506192002 8 9 0.0 0.0 0.20 4.24 0.00 89 1007.9
20260506191502 8 2 8.0 0.0 0.00 4.22 0.00 89 1007.7
20260506191002 8 42 0.0 0.0 0.00 4.19 0.00 89 1007.6
20260506190503 8 1 0.0 0.0 0.00 4.19 0.00 89 1007.6
20260506190003 8 359 0.0 0.0 0.00 4.19 0.00 89 1007.5
20260506185502 8 20 0.0 0.0 0.13 4.19 0.00 89 1007.5
20260506185003 8 34 0.0 0.0 0.13 4.19 0.00 89 1007.4
20260506184503 8 45 0.0 0.0 0.13 4.19 0.00 89 1007.3
20260506184003 8 348 0.0 0.0 0.00 4.17 0.00 89 1007.2
20260506183503 8 23 0.0 0.0 0.00 4.17 0.00 89 1007.2
20260506183003 8 347 0.0 0.0 0.00 4.17 0.00 89 1007.1
20260506182502 8 345 0.0 0.0 0.00 4.14 0.00 89 1007.1
20260506182002 8 44 8.0 0.0 0.00 4.14 0.00 89 1007.1
20260506181502 8 4 0.0 0.0 0.00 4.14 0.00 89 1007.0
20260506181002 8 22 0.0 0.0 0.00 4.11 0.00 90 1007.1
20260506180502 8 23 0.0 0.0 0.10 4.11 0.00 89 1007.0
20260506180003 8 356 0.0 0.0 0.10 4.11 0.00 90 1007.0
20260506175502 8 4 0.0 0.0 0.10 4.11 0.00 90 1007.0
20260506175002 8 4 0.0 0.0 0.13 4.09 0.00 90 1006.9
20260506174502 8 54 0.0 0.0 0.18 4.09 0.00 90 1006.9
20260506174002 8 354 0.0 0.0 0.36 4.09 0.00 90 1006.9
20260506173502 8 2 0.0 0.0 0.43 4.06 0.00 90 1006.9
20260506173002 8 33 0.0 0.0 0.30 4.06 0.00 90 1006.8
20260506172502 8 21 0.0 0.0 0.36 4.04 0.00 90 1006.8
20260506172003 8 349 0.0 0.0 0.33 4.01 0.00 90 1006.8
20260506171503 8 352 0.0 0.0 0.13 3.99 0.00 89 1006.8
20260506171003 8 356 0.0 0.0 0.10 3.96 0.00 89 1006.8
20260506170503 8 352 0.0 0.0 0.10 3.96 0.00 89 1006.8
20260506170002 8 348 8.0 0.0 0.13 3.94 0.00 90 1006.7
20260506165503 8 341 0.0 0.0 0.13 3.94 0.00 89 1006.6
20260506165003 9 15 0.0 0.0 0.13 3.94 0.00 90 1006.6
20260506164502 8 329 0.0 0.0 0.13 3.91 0.00 89 1006.6
20260506164002 9 15 0.0 0.0 0.13 3.91 0.00 90 1006.6
20260506163502 9 50 0.0 0.0 0.15 3.89 0.00 90 1006.6
20260506163002 9 356 0.0 0.0 0.20 3.89 0.00 90 1006.5
20260506162502 9 3 0.0 0.0 0.23 3.86 0.00 90 1006.5
20260506162002 9 27 0.0 0.0 0.30 3.86 0.00 90 1006.5
20260506161502 9 18 0.0 0.0 0.46 3.84 0.00 90 1006.5
20260506161002 8 11 0.0 0.0 0.41 3.78 0.00 90 1006.5
20260506160502 8 340 9.7 0.0 0.43 3.76 0.00 90 1006.5
20260506160002 8 40 0.0 0.0 0.69 3.73 0.00 90 1006.5
20260506155502 9 3 0.0 0.0 0.33 3.68 0.00 90 1006.6
20260506155002 9 2 0.0 0.0 0.18 3.66 0.00 90 1006.6
20260506154502 9 2 0.0 0.0 0.36 3.63 0.00 90 1006.6
20260506154002 9 17 0.0 0.0 0.18 3.61 0.00 90 1006.7
20260506153502 9 21 0.0 0.0 0.10 3.58 0.00 90 1006.6
20260506153003 9 18 4.8 0.0 0.10 3.58 0.00 90 1006.6
20260506152503 9 345 0.0 0.0 0.00 3.56 0.00 90 1006.6
20260506152003 9 32 0.0 0.0 0.00 3.56 0.00 90 1006.6
20260506151503 9 59 0.0 0.0 0.00 3.56 0.00 90 1006.6
20260506151003 9 302 0.0 0.0 0.00 3.53 0.00 90 1006.6
20260506150503 9 232 0.0 0.0 0.00 3.53 0.00 90 1006.5
20260506150003 9 85 0.0 0.0 0.00 3.53 0.00 90 1006.4
20260506145503 9 0 8.0 0.0 0.00 3.53 0.00 90 1006.4
20260506145002 9 352 0.0 0.0 0.00 3.53 0.00 90 1006.4
20260506144502 9 352 0.0 0.0 0.00 3.53 0.00 90 1006.4
20260506144002 9 25 0.0 0.0 0.00 3.53 0.00 90 1006.4
20260506143502 9 16 4.8 0.0 0.00 3.53 0.00 90 1006.3
20260506143002 9 52 0.0 0.0 0.00 3.53 0.00 90 1006.3
20260506142502 9 358 0.0 0.0 0.00 3.53 0.00 90 1006.3
20260506142002 9 19 3.2 0.0 0.00 3.53 0.00 90 1006.3
20260506141502 9 6 3.2 0.0 0.00 3.51 0.00 90 1006.3
20260506141002 9 16 0.0 0.0 0.00 3.51 0.00 90 1006.3
20260506140502 9 359 0.0 0.0 0.00 3.51 0.00 90 1006.3
20260506140002 9 33 0.0 0.0 0.00 3.51 0.00 90 1006.3
20260506135002 9 54 0.0 0.0 0.00 3.51 0.00 90 1006.2
20260506134502 9 344 4.8 0.0 0.00 3.48 0.00 90 1006.2
20260506134003 10 339 0.0 0.0 0.00 3.48 0.00 90 1006.2
20260506133503 9 16 0.0 0.0 0.13 3.48 0.00 90 1006.2
20260506133003 9 356 0.0 0.0 0.13 3.48 0.00 90 1006.2
20260506132502 9 8 4.8 0.0 0.13 3.48 0.00 90 1006.3
20260506132003 9 353 0.0 0.0 0.15 3.45 0.00 90 1006.2
20260506131503 9 2 0.0 0.0 0.33 3.45 0.00 90 1006.2
20260506131003 9 356 0.0 0.0 0.38 3.43 0.00 90 1006.2
20260506130503 9 56 0.0 0.0 0.18 3.40 0.00 90 1006.2
20260506130003 9 67 0.0 0.0 0.00 3.38 0.00 90 1006.2
20260506125502 9 352 0.0 0.0 0.00 3.38 0.00 90 1006.2
20260506125002 9 40 0.0 0.0 0.10 3.35 0.00 90 1006.1
20260506124502 9 73 0.0 0.0 0.13 3.35 0.00 90 1006.0
20260506124002 9 340 0.0 0.0 0.13 3.35 0.00 90 1005.9
20260506123502 9 30 0.0 0.0 0.13 3.35 0.00 90 1005.9
20260506123002 9 64 0.0 0.0 0.15 3.33 0.00 90 1005.9
20260506122502 8 354 8.0 0.0 0.20 3.33 0.00 90 1005.8
20260506122002 8 2 0.0 0.0 0.20 3.30 0.00 90 1005.8
20260506121502 8 48 0.0 0.0 0.23 3.30 0.00 90 1005.8
20260506121002 8 0 0.0 0.0 0.36 3.28 0.00 90 1005.8
20260506120502 8 325 3.2 0.0 0.28 3.25 0.00 90 1005.8
20260506120002 8 33 0.0 0.0 0.28 3.23 0.00 90 1005.8
20260506115502 8 29 0.0 0.0 0.10 3.20 0.00 90 1005.8
20260506115003 8 12 0.0 0.0 0.00 3.17 0.00 90 1005.8
20260506114503 8 10 4.8 0.0 0.00 3.17 0.00 90 1005.7
20260506114003 8 22 0.0 0.0 0.00 3.17 0.00 90 1005.8
20260506113503 8 75 0.0 0.0 0.00 3.15 0.00 90 1005.8
20260506113003 8 8 0.0 0.0 0.00 3.15 0.00 90 1005.8
20260506112502 8 34 0.0 0.0 0.00 3.15 0.00 90 1005.7
20260506112002 8 27 0.0 0.0 0.00 3.15 0.00 90 1005.7
20260506111502 8 51 8.0 0.0 0.00 3.15 0.00 90 1005.7
20260506111002 8 20 8.0 0.0 0.00 3.15 0.00 90 1005.7
20260506110502 8 90 0.0 0.0 0.00 3.12 0.00 90 1005.7
20260506110002 8 69 0.0 0.0 0.00 3.12 0.00 90 1005.6
20260506105502 8 337 0.0 0.0 0.00 3.12 0.00 90 1005.6
20260506105002 8 30 12.9 0.0 0.00 3.12 0.00 90 1005.6
20260506104502 8 76 0.0 0.0 0.00 3.12 0.00 90 1005.6
20260506104002 8 74 8.0 0.0 0.00 3.10 0.00 90 1005.6
20260506103502 8 13 0.0 0.0 0.00 3.10 0.00 90 1005.7
20260506103002 8 46 8.0 0.0 0.00 3.10 0.00 90 1005.7
20260506102502 8 39 0.0 0.0 0.00 3.10 0.00 90 1005.6
20260506102002 8 358 12.9 0.0 0.00 3.10 0.00 90 1005.6
20260506101502 8 27 0.0 0.0 0.00 3.10 0.00 90 1005.7
20260506101002 8 327 0.0 0.0 0.00 3.10 0.00 90 1005.6
20260506100503 8 39 0.0 0.0 0.00 3.10 0.00 90 1005.6
20260506100003 8 294 0.0 0.0 0.00 3.10 0.00 90 1005.5
20260506095503 8 96 0.0 0.0 0.00 3.10 0.00 90 1005.5
20260506095003 8 51 4.8 0.0 0.00 3.10 0.00 90 1005.5
20260506094502 8 57 0.0 0.0 0.00 3.10 0.00 90 1005.4
20260506094003 8 78 9.7 0.0 0.00 3.10 0.00 90 1005.4